map of MDQ home
MDQ - Airport
Location
City:  Mar del Plata, Buenos Aires, Argentina
ICAO:SAZM
IATA:MDQ

Details
Type:Airport (Aerodrome, Airfield)
Use:Public/Civil, Military
Latitude:3756'03"S (-37.934166)
Longitude:5734'24"W (-57.573332)
Datum:WGS 1984
Elevation:71 ft (22 m)
Variation:7.51W (WMM2015 magnetic declination)
-0.15 annual change
Runways:1
Longest:7218 × 197 ft (2200 × 60 m), paved

Time
Time Zone:UTC-3
Local Time:

Weather
METAR:SAZM 280335Z 23006KT 7000 OVC005 11/11 Q1018
TAF:SAZM 272300Z 2800/2824 18020KT 4000 -RADZ BKN005 OVC010 TX12/2817Z TN10/2809Z
BECMG 2804/2806 6000 -DZBR SCT010 BKN020
BECMG 2810/2812 20010KT 7000 OVC010 BKN025
BECMG 2814/2817 OVC025

Related Locations
Nearby:
Farthest:WEH: 12378 mi / 19920 km
Weihai (Wendeng) [Dashuipo Airport], 37, CN

Find:

   beyond  
but within

Other Information
Maps:
NOTAMs:
Links:
Sources:

  
flag of Argentina
flag of Buenos Aires
  

Sectional Chart

Flight Planning
at skyvector.com

Satellite Image

Google Maps Satellite view

 

Copyright © 2004-2017 Karl L. Swartz. All rights reserved.
The Great Circle Mapper name and logo are trademarks of the Great Circle Mapper.
All other trademarks mentioned herein belong to their respective owners.
Please see credits for attibutions and further copyright information.

  Follow gcmap on Facebook Follow gcmap on Twitter Follow gcmap on Google+ GCmap on LinkedIn

hCard Microformat

Geo Microformat